Time,TemperatureF,DewpointF,PressureIn,WindDirection,WindDirectionDegrees,WindSpeedMPH,WindSpeedGustMPH,Humidity,HourlyPrecipIn,Conditions,Clouds,dailyrainin,SoftwareType,DateUTC
2013-03-11 00:02:00,41.4,39.0,30.41,WNW,293,0.0,1.3,91,0.00,,,0.00,WUHU216HW,2013-03-11 07:02:00,
2013-03-11 00:07:00,41.2,38.8,30.41,WNW,293,0.0,1.1,91,0.00,,,0.00,WUHU216HW,2013-03-11 07:07:00,
2013-03-11 00:12:00,41.0,38.6,30.41,NW,315,0.0,0.7,91,0.00,,,0.00,WUHU216HW,2013-03-11 07:12:00,
2013-03-11 00:17:00,40.9,38.4,30.41,North,0,0.4,0.7,91,0.00,,,0.00,WUHU216HW,2013-03-11 07:17:00,
2013-03-11 00:22:00,40.9,38.4,30.41,North,0,0.0,1.1,91,0.00,,,0.00,WUHU216HW,2013-03-11 07:22:00,
2013-03-11 00:27:00,40.7,38.3,30.40,North,0,0.0,1.1,91,0.00,,,0.00,WUHU216HW,2013-03-11 07:27:00,
2013-03-11 00:33:00,40.7,38.5,30.41,North,0,0.0,0.0,92,0.00,,,0.00,WUHU216HW,2013-03-11 07:33:00,
2013-03-11 00:38:00,40.7,38.3,30.40,North,0,0.0,0.0,91,0.00,,,0.00,WUHU216HW,2013-03-11 07:38:00,
2013-03-11 00:43:00,40.7,38.3,30.40,North,0,0.0,0.0,91,0.00,,,0.00,WUHU216HW,2013-03-11 07:43:00,
2013-03-11 00:48:00,40.7,38.3,30.40,NW,315,0.0,0.0,91,0.00,,,0.00,WUHU216HW,2013-03-11 07:48:00,
2013-03-11 00:53:00,40.7,38.5,30.40,NW,315,0.0,0.0,92,0.00,,,0.00,WUHU216HW,2013-03-11 07:53:00,
2013-03-11 00:58:00,40.5,38.3,30.40,NNW,338,0.2,0.9,92,0.00,,,0.00,WUHU216HW,2013-03-11 07:58:00,
2013-03-11 01:03:00,40.3,38.2,30.40,NNW,338,0.0,0.9,92,0.00,,,0.00,WUHU216HW,2013-03-11 08:03:00,
2013-03-11 01:08:00,40.3,38.2,30.40,NNW,338,0.0,0.4,92,0.00,,,0.00,WUHU216HW,2013-03-11 08:08:00,
2013-03-11 01:14:00,40.3,38.2,30.40,NNW,338,0.0,0.0,92,0.00,,,0.00,WUHU216HW,2013-03-11 08:14:00,
2013-03-11 01:19:00,40.1,38.0,30.40,NNW,338,0.0,0.0,92,0.00,,,0.00,WUHU216HW,2013-03-11 08:19:00,
2013-03-11 01:24:00,40.3,38.2,30.40,NNW,338,0.0,0.0,92,0.00,,,0.00,WUHU216HW,2013-03-11 08:24:00,
2013-03-11 01:29:00,40.3,38.2,30.40,NNW,338,0.0,0.0,92,0.00,,,0.00,WUHU216HW,2013-03-11 08:29:00,
2013-03-11 01:34:00,40.5,38.3,30.40,NNW,338,0.0,0.0,92,0.00,,,0.00,WUHU216HW,2013-03-11 08:34:00,
2013-03-11 01:39:00,40.7,38.5,30.40,NNW,338,0.0,0.0,92,0.00,,,0.00,WUHU216HW,2013-03-11 08:39:00,
2013-03-11 01:44:00,40.7,38.5,30.40,NNW,338,0.0,0.0,92,0.00,,,0.00,WUHU216HW,2013-03-11 08:44:00,
2013-03-11 01:49:00,40.9,38.7,30.40,NNW,338,0.0,0.0,92,0.00,,,0.00,WUHU216HW,2013-03-11 08:49:00,
2013-03-11 01:54:00,41.0,38.9,30.41,NNW,338,0.0,0.0,92,0.00,,,0.00,WUHU216HW,2013-03-11 08:54:00,
2013-03-11 01:59:00,41.0,38.9,30.41,NNW,338,0.0,0.0,92,0.00,,,0.00,WUHU216HW,2013-03-11 08:59:00,
2013-03-11 02:04:00,41.2,39.1,30.41,NNW,338,0.0,0.0,92,0.00,,,0.00,WUHU216HW,2013-03-11 09:04:00,
2013-03-11 02:09:00,41.2,39.1,30.41,NNW,338,0.0,0.0,92,0.00,,,0.00,WUHU216HW,2013-03-11 09:09:00,
2013-03-11 02:14:00,41.4,39.2,30.41,NNW,338,0.0,0.0,92,0.00,,,0.00,WUHU216HW,2013-03-11 09:14:00,
2013-03-11 02:19:00,41.4,39.2,30.41,NNW,338,0.0,0.0,92,0.00,,,0.00,WUHU216HW,2013-03-11 09:19:00,
2013-03-11 02:24:00,41.6,39.4,30.41,NNW,338,0.0,0.0,92,0.00,,,0.00,WUHU216HW,2013-03-11 09:24:00,
2013-03-11 02:29:00,41.6,39.4,30.41,NNW,338,0.0,0.0,92,0.00,,,0.00,WUHU216HW,2013-03-11 09:29:00,
2013-03-11 02:34:00,41.6,39.4,30.41,ENE,68,0.2,0.4,92,0.00,,,0.00,WUHU216HW,2013-03-11 09:34:00,
2013-03-11 02:39:00,41.6,39.4,30.41,NE,45,0.0,0.9,92,0.00,,,0.00,WUHU216HW,2013-03-11 09:39:00,
2013-03-11 02:44:00,41.6,39.4,30.41,ENE,68,0.4,0.9,92,0.00,,,0.00,WUHU216HW,2013-03-11 09:44:00,
2013-03-11 02:49:00,41.6,39.4,30.41,ENE,68,0.0,0.9,92,0.00,,,0.00,WUHU216HW,2013-03-11 09:49:00,
2013-03-11 02:54:00,41.8,39.6,30.41,East,90,0.7,1.1,92,0.00,,,0.00,WUHU216HW,2013-03-11 09:54:00,
2013-03-11 02:59:00,41.8,39.6,30.41,ENE,68,0.9,1.1,92,0.00,,,0.00,WUHU216HW,2013-03-11 09:59:00,
2013-03-11 03:04:00,41.8,39.6,30.41,ENE,68,1.1,1.3,92,0.00,,,0.00,WUHU216HW,2013-03-11 10:04:00,
2013-03-11 03:09:00,41.8,39.6,30.40,ENE,68,0.7,2.5,92,0.00,,,0.00,WUHU216HW,2013-03-11 10:09:00,
2013-03-11 03:14:00,41.8,39.6,30.40,ESE,113,1.8,2.5,92,0.00,,,0.00,WUHU216HW,2013-03-11 10:14:00,
2013-03-11 03:19:00,41.9,39.8,30.40,ESE,113,0.0,2.5,92,0.00,,,0.00,WUHU216HW,2013-03-11 10:19:00,
2013-03-11 03:24:00,42.1,40.0,30.40,ESE,113,1.1,2.5,92,0.00,,,0.00,WUHU216HW,2013-03-11 10:24:00,
2013-03-11 03:29:00,42.1,40.0,30.40,East,90,2.0,2.5,92,0.00,,,0.00,WUHU216HW,2013-03-11 10:29:00,
2013-03-11 03:34:00,42.1,40.0,30.40,ENE,68,2.7,2.7,92,0.00,,,0.00,WUHU216HW,2013-03-11 10:34:00,
2013-03-11 03:39:00,42.1,40.0,30.40,East,90,1.8,2.7,92,0.00,,,0.00,WUHU216HW,2013-03-11 10:39:00,
2013-03-11 03:44:00,42.1,40.0,30.40,ENE,68,1.8,2.7,92,0.00,,,0.00,WUHU216HW,2013-03-11 10:44:00,
2013-03-11 03:49:00,42.3,40.1,30.40,East,90,2.7,3.4,92,0.00,,,0.00,WUHU216HW,2013-03-11 10:49:00,
2013-03-11 03:54:00,42.3,40.1,30.40,ENE,68,2.5,3.6,92,0.00,,,0.00,WUHU216HW,2013-03-11 10:54:00,
2013-03-11 03:59:00,42.3,40.1,30.39,East,90,1.6,3.6,92,0.00,,,0.00,WUHU216HW,2013-03-11 10:59:00,
2013-03-11 04:04:00,42.3,39.9,30.40,ENE,68,1.8,3.1,91,0.00,,,0.00,WUHU216HW,2013-03-11 11:04:00,
2013-03-11 04:09:00,42.3,39.9,30.39,ESE,113,2.7,2.7,91,0.00,,,0.00,WUHU216HW,2013-03-11 11:09:00,
2013-03-11 04:14:00,42.5,40.1,30.39,ESE,113,3.4,3.4,91,0.00,,,0.00,WUHU216HW,2013-03-11 11:14:00,
2013-03-11 04:19:00,42.5,40.3,30.39,ENE,68,0.9,3.4,92,0.00,,,0.00,WUHU216HW,2013-03-11 11:19:00,
2013-03-11 04:24:00,42.5,40.3,30.40,ESE,113,1.8,3.8,92,0.00,,,0.00,WUHU216HW,2013-03-11 11:24:00,
2013-03-11 04:29:00,42.5,40.1,30.39,ESE,113,3.4,3.8,91,0.00,,,0.00,WUHU216HW,2013-03-11 11:29:00,
2013-03-11 04:34:00,42.7,40.2,30.39,East,90,2.5,3.6,91,0.00,,,0.00,WUHU216HW,2013-03-11 11:34:00,
2013-03-11 04:39:00,42.8,40.4,30.39,ESE,113,2.2,3.6,91,0.00,,,0.00,WUHU216HW,2013-03-11 11:39:00,
2013-03-11 04:44:00,42.7,40.2,30.39,ESE,113,2.2,3.4,91,0.00,,,0.00,WUHU216HW,2013-03-11 11:44:00,
2013-03-11 04:49:00,42.7,40.2,30.38,ENE,68,2.5,3.4,91,0.00,,,0.00,WUHU216HW,2013-03-11 11:49:00,
2013-03-11 04:54:00,42.7,40.0,30.38,East,90,2.2,3.1,90,0.00,,,0.00,WUHU216HW,2013-03-11 11:54:00,
2013-03-11 04:59:00,42.7,40.0,30.38,ENE,68,2.2,3.4,90,0.00,,,0.00,WUHU216HW,2013-03-11 11:59:00,
2013-03-11 05:04:00,42.7,40.0,30.38,ENE,68,1.3,4.7,90,0.00,,,0.00,WUHU216HW,2013-03-11 12:04:00,
2013-03-11 05:09:00,42.8,40.1,30.38,East,90,1.3,4.7,90,0.00,,,0.00,WUHU216HW,2013-03-11 12:09:00,
2013-03-11 05:14:00,42.8,39.9,30.38,East,90,2.0,3.4,89,0.00,,,0.00,WUHU216HW,2013-03-11 12:14:00,
2013-03-11 05:19:00,42.8,39.9,30.39,East,90,1.8,2.9,89,0.00,,,0.00,WUHU216HW,2013-03-11 12:19:00,
2013-03-11 05:24:00,42.8,39.5,30.39,ENE,68,3.8,3.8,88,0.00,,,0.00,WUHU216HW,2013-03-11 12:24:00,
2013-03-11 05:29:00,42.8,39.9,30.39,ENE,68,3.4,6.7,89,0.00,,,0.00,WUHU216HW,2013-03-11 12:29:00,
2013-03-11 05:34:00,42.8,40.1,30.39,NE,45,3.4,6.7,90,0.00,,,0.00,WUHU216HW,2013-03-11 12:34:00,
2013-03-11 05:39:00,42.8,40.1,30.39,ENE,68,4.5,5.4,90,0.00,,,0.00,WUHU216HW,2013-03-11 12:39:00,
2013-03-11 05:44:00,42.8,40.1,30.39,ENE,68,4.5,7.2,90,0.00,,,0.00,WUHU216HW,2013-03-11 12:44:00,
2013-03-11 05:49:00,42.8,40.1,30.39,ENE,68,4.0,7.2,90,0.00,,,0.00,WUHU216HW,2013-03-11 12:49:00,
2013-03-11 05:54:00,42.8,40.1,30.39,NE,45,3.8,6.5,90,0.00,,,0.00,WUHU216HW,2013-03-11 12:54:00,
2013-03-11 05:59:00,42.8,40.1,30.39,East,90,3.4,4.5,90,0.00,,,0.00,WUHU216HW,2013-03-11 12:59:00,
2013-03-11 06:04:00,42.8,40.1,30.39,East,90,0.9,4.5,90,0.00,,,0.00,WUHU216HW,2013-03-11 13:04:00,
2013-03-11 06:09:00,42.8,40.1,30.38,NE,45,1.8,3.8,90,0.00,,,0.00,WUHU216HW,2013-03-11 13:09:00,
2013-03-11 06:14:00,42.8,40.1,30.38,ENE,68,1.1,2.9,90,0.00,,,0.00,WUHU216HW,2013-03-11 13:14:00,
2013-03-11 06:19:00,42.8,39.9,30.38,ENE,68,1.3,2.9,89,0.00,,,0.00,WUHU216HW,2013-03-11 13:19:00,
2013-03-11 06:24:00,42.8,39.9,30.39,ESE,113,1.1,1.8,89,0.00,,,0.00,WUHU216HW,2013-03-11 13:24:00,
2013-03-11 06:29:00,42.8,39.9,30.38,East,90,0.9,1.8,89,0.00,,,0.00,WUHU216HW,2013-03-11 13:29:00,
2013-03-11 06:34:00,42.8,39.9,30.38,East,90,1.3,1.8,89,0.00,,,0.00,WUHU216HW,2013-03-11 13:34:00,
2013-03-11 06:39:00,42.8,39.9,30.39,ENE,68,2.5,2.5,89,0.00,,,0.00,WUHU216HW,2013-03-11 13:39:00,
2013-03-11 06:44:00,42.8,39.5,30.38,ENE,68,0.7,2.5,88,0.00,,,0.00,WUHU216HW,2013-03-11 13:44:00,
2013-03-11 06:49:00,42.7,39.3,30.38,ENE,68,2.5,2.5,88,0.00,,,0.00,WUHU216HW,2013-03-11 13:49:00,
2013-03-11 06:54:00,42.7,39.3,30.38,NE,45,2.0,2.5,88,0.00,,,0.00,WUHU216HW,2013-03-11 13:54:00,
2013-03-11 06:59:00,42.3,39.3,30.38,NE,45,2.0,2.5,89,0.00,,,0.00,WUHU216HW,2013-03-11 13:59:00,
2013-03-11 07:04:00,42.1,39.4,30.38,NE,45,2.0,3.4,90,0.00,,,0.00,WUHU216HW,2013-03-11 14:04:00,
2013-03-11 07:09:00,42.1,39.4,30.38,ENE,68,3.4,3.8,90,0.00,,,0.00,WUHU216HW,2013-03-11 14:09:00,
2013-03-11 07:14:00,41.9,39.2,30.38,NE,45,3.6,4.7,90,0.00,,,0.00,WUHU216HW,2013-03-11 14:14:00,
2013-03-11 07:19:00,41.9,39.2,30.38,NE,45,2.7,4.7,90,0.00,,,0.00,WUHU216HW,2013-03-11 14:19:00,
2013-03-11 07:24:00,41.8,39.1,30.38,ENE,68,2.9,4.5,90,0.00,,,0.00,WUHU216HW,2013-03-11 14:24:00,
2013-03-11 07:29:00,41.4,38.7,30.38,NE,45,4.3,6.3,90,0.00,,,0.00,WUHU216HW,2013-03-11 14:29:00,
2013-03-11 07:34:00,41.4,38.7,30.38,NE,45,4.9,6.3,90,0.00,,,0.00,WUHU216HW,2013-03-11 14:34:00,
2013-03-11 07:39:00,41.2,38.5,30.37,East,90,4.7,6.9,90,0.00,,,0.00,WUHU216HW,2013-03-11 14:39:00,
2013-03-11 07:44:00,41.0,38.6,30.37,NE,45,2.5,6.9,91,0.00,,,0.00,WUHU216HW,2013-03-11 14:44:00,
2013-03-11 07:49:00,41.0,38.6,30.37,ENE,68,4.0,5.4,91,0.00,,,0.00,WUHU216HW,2013-03-11 14:49:00,
2013-03-11 07:54:00,41.0,38.6,30.37,ENE,68,4.9,5.6,91,0.00,,,0.00,WUHU216HW,2013-03-11 14:54:00,
2013-03-11 07:59:00,41.0,38.6,30.37,East,90,5.4,7.8,91,0.00,,,0.00,WUHU216HW,2013-03-11 14:59:00,
2013-03-11 08:05:00,41.0,38.6,30.38,ENE,68,4.0,7.8,91,0.00,,,0.00,WUHU216HW,2013-03-11 15:05:00,
2013-03-11 08:10:00,41.2,38.8,30.38,ENE,68,4.5,5.4,91,0.00,,,0.00,WUHU216HW,2013-03-11 15:10:00,
2013-03-11 08:15:00,41.2,38.8,30.38,ENE,68,1.3,5.1,91,0.00,,,0.00,WUHU216HW,2013-03-11 15:15:00,
2013-03-11 08:20:00,41.2,38.8,30.38,ESE,113,1.1,4.9,91,0.00,,,0.00,WUHU216HW,2013-03-11 15:20:00,
2013-03-11 08:25:00,41.2,38.8,30.38,East,90,1.1,2.0,91,0.00,,,0.00,WUHU216HW,2013-03-11 15:25:00,
2013-03-11 08:30:00,41.4,39.0,30.38,East,90,1.3,2.0,91,0.00,,,0.00,WUHU216HW,2013-03-11 15:30:00,
2013-03-11 08:35:00,41.2,38.8,30.37,ENE,68,2.9,3.8,91,0.00,,,0.00,WUHU216HW,2013-03-11 15:35:00,
2013-03-11 08:40:00,41.4,39.0,30.37,NE,45,2.5,4.7,91,0.00,,,0.00,WUHU216HW,2013-03-11 15:40:00,
2013-03-11 08:45:00,41.4,39.0,30.37,SE,135,2.0,4.7,91,0.00,,,0.00,WUHU216HW,2013-03-11 15:45:00,
2013-03-11 08:50:00,41.8,39.1,30.37,NE,45,4.0,4.0,90,0.00,,,0.00,WUHU216HW,2013-03-11 15:50:00,
2013-03-11 08:55:00,41.9,39.2,30.37,NE,45,6.3,6.3,90,0.00,,,0.00,WUHU216HW,2013-03-11 15:55:00,
2013-03-11 09:00:00,41.9,38.6,30.37,ENE,68,6.7,6.9,88,0.00,,,0.00,WUHU216HW,2013-03-11 16:00:00,
2013-03-11 09:05:00,41.9,38.6,30.37,East,90,3.6,7.6,88,0.00,,,0.00,WUHU216HW,2013-03-11 16:05:00,
2013-03-11 09:10:00,42.1,38.5,30.38,ENE,68,4.5,7.6,87,0.00,,,0.00,WUHU216HW,2013-03-11 16:10:00,
2013-03-11 09:15:00,42.1,38.5,30.37,ESE,113,2.0,9.6,87,0.00,,,0.00,WUHU216HW,2013-03-11 16:15:00,
2013-03-11 09:20:00,42.1,38.5,30.38,East,90,3.1,9.6,87,0.00,,,0.00,WUHU216HW,2013-03-11 16:20:00,
2013-03-11 09:25:00,42.1,38.5,30.38,ENE,68,7.2,8.9,87,0.00,,,0.00,WUHU216HW,2013-03-11 16:25:00,
2013-03-11 09:30:00,42.1,38.5,30.38,North,0,6.9,7.8,87,0.00,,,0.00,WUHU216HW,2013-03-11 16:30:00,
2013-03-11 09:35:00,42.1,38.5,30.38,ENE,68,7.2,8.1,87,0.00,,,0.00,WUHU216HW,2013-03-11 16:35:00,
2013-03-11 09:40:00,42.1,38.5,30.38,ENE,68,3.8,9.2,87,0.00,,,0.00,WUHU216HW,2013-03-11 16:40:00,
2013-03-11 09:45:00,42.1,38.5,30.38,ENE,68,7.8,9.2,87,0.00,,,0.00,WUHU216HW,2013-03-11 16:45:00,
2013-03-11 09:50:00,42.1,38.5,30.38,ENE,68,7.6,8.5,87,0.00,,,0.00,WUHU216HW,2013-03-11 16:50:00,
2013-03-11 09:55:00,42.1,38.5,30.38,ENE,68,5.4,8.7,87,0.00,,,0.00,WUHU216HW,2013-03-11 16:55:00,
2013-03-11 10:00:00,42.1,38.5,30.38,East,90,7.6,8.7,87,0.00,,,0.00,WUHU216HW,2013-03-11 17:00:00,
2013-03-11 10:05:00,42.1,38.5,30.38,ENE,68,4.9,9.2,87,0.00,,,0.00,WUHU216HW,2013-03-11 17:05:00,
2013-03-11 10:10:00,42.1,38.5,30.38,NNE,23,6.7,9.2,87,0.00,,,0.00,WUHU216HW,2013-03-11 17:10:00,
2013-03-11 10:15:00,42.3,38.7,30.38,ESE,113,4.0,8.5,87,0.00,,,0.00,WUHU216HW,2013-03-11 17:15:00,
2013-03-11 10:20:00,42.7,39.1,30.38,NE,45,1.8,8.5,87,0.00,,,0.00,WUHU216HW,2013-03-11 17:20:00,
2013-03-11 10:25:00,42.8,39.3,30.37,ENE,68,2.5,5.4,87,0.00,,,0.00,WUHU216HW,2013-03-11 17:25:00,
2013-03-11 10:30:00,43.2,39.2,30.38,ENE,68,4.9,5.6,86,0.00,,,0.00,WUHU216HW,2013-03-11 17:30:00,
2013-03-11 10:35:00,43.4,39.8,30.37,ENE,68,3.8,5.6,87,0.00,,,0.00,WUHU216HW,2013-03-11 17:35:00,
2013-03-11 10:40:00,43.4,39.4,30.37,ENE,68,3.1,5.4,86,0.00,,,0.00,WUHU216HW,2013-03-11 17:40:00,
2013-03-11 10:45:00,43.6,40.0,30.37,SE,135,2.2,4.5,87,0.00,,,0.00,WUHU216HW,2013-03-11 17:45:00,
2013-03-11 10:50:00,43.9,40.3,30.37,ESE,113,2.5,2.7,87,0.00,,,0.00,WUHU216HW,2013-03-11 17:50:00,
2013-03-11 10:55:00,44.3,40.1,30.37,ESE,113,3.8,3.8,85,0.00,,,0.00,WUHU216HW,2013-03-11 17:55:00,
2013-03-11 11:00:00,44.3,40.1,30.36,SE,135,2.2,4.3,85,0.00,,,0.00,WUHU216HW,2013-03-11 18:00:00,
2013-03-11 11:05:00,44.5,39.6,30.36,ESE,113,2.5,4.3,83,0.00,,,0.00,WUHU216HW,2013-03-11 18:05:00,
2013-03-11 11:10:00,44.6,40.2,30.36,ESE,113,1.8,3.8,84,0.00,,,0.00,WUHU216HW,2013-03-11 18:10:00,
2013-03-11 11:15:00,45.0,40.8,30.36,SE,135,1.6,3.6,85,0.00,,,0.00,WUHU216HW,2013-03-11 18:15:00,
2013-03-11 11:20:00,45.4,41.1,30.37,East,90,1.1,2.2,85,0.00,,,0.00,WUHU216HW,2013-03-11 18:20:00,
2013-03-11 11:25:00,45.7,40.6,30.36,ESE,113,1.8,3.4,82,0.00,,,0.00,WUHU216HW,2013-03-11 18:25:00,
2013-03-11 11:30:00,45.7,40.2,30.36,ENE,68,2.5,4.7,81,0.00,,,0.00,WUHU216HW,2013-03-11 18:30:00,
2013-03-11 11:35:00,45.7,40.0,30.36,East,90,4.0,5.4,80,0.00,,,0.00,WUHU216HW,2013-03-11 18:35:00,
2013-03-11 11:40:00,45.7,39.6,30.36,NE,45,4.0,5.4,79,0.00,,,0.00,WUHU216HW,2013-03-11 18:40:00,
2013-03-11 11:45:00,45.9,39.8,30.36,NE,45,4.3,4.9,79,0.00,,,0.00,WUHU216HW,2013-03-11 18:45:00,
2013-03-11 11:50:00,45.9,39.8,30.36,East,90,2.9,5.1,79,0.00,,,0.00,WUHU216HW,2013-03-11 18:50:00,
2013-03-11 11:55:00,46.1,40.0,30.36,NE,45,2.9,5.6,79,0.00,,,0.00,WUHU216HW,2013-03-11 18:55:00,
2013-03-11 12:00:00,46.1,40.0,30.36,East,90,2.2,5.6,79,0.00,,,0.00,WUHU216HW,2013-03-11 19:00:00,
2013-03-11 12:05:00,46.1,39.6,30.36,NNE,23,1.8,5.6,78,0.00,,,0.00,WUHU216HW,2013-03-11 19:05:00,
2013-03-11 12:10:00,46.4,40.0,30.35,ENE,68,1.6,5.6,78,0.00,,,0.00,WUHU216HW,2013-03-11 19:10:00,
2013-03-11 12:15:00,46.4,39.7,30.35,East,90,2.2,4.5,77,0.00,,,0.00,WUHU216HW,2013-03-11 19:15:00,
2013-03-11 12:20:00,46.6,39.8,30.35,East,90,3.8,4.9,77,0.00,,,0.00,WUHU216HW,2013-03-11 19:20:00,
2013-03-11 12:25:00,46.8,40.3,30.35,ESE,113,1.1,4.9,78,0.00,,,0.00,WUHU216HW,2013-03-11 19:25:00,
2013-03-11 12:30:00,47.2,40.7,30.35,NNE,23,0.4,4.9,78,0.00,,,0.00,WUHU216HW,2013-03-11 19:30:00,
2013-03-11 12:35:00,47.5,41.7,30.35,ENE,68,0.4,3.1,80,0.00,,,0.00,WUHU216HW,2013-03-11 19:35:00,
2013-03-11 12:40:00,47.7,41.5,30.34,NE,45,0.4,2.2,79,0.00,,,0.00,WUHU216HW,2013-03-11 19:40:00,
2013-03-11 12:45:00,47.9,41.3,30.34,ESE,113,1.8,4.0,78,0.00,,,0.00,WUHU216HW,2013-03-11 19:45:00,
2013-03-11 12:50:00,47.9,41.3,30.34,ESE,113,2.2,4.0,78,0.00,,,0.00,WUHU216HW,2013-03-11 19:50:00,
2013-03-11 12:55:00,48.1,41.5,30.34,SSE,158,1.1,4.9,78,0.00,,,0.00,WUHU216HW,2013-03-11 19:55:00,
2013-03-11 13:00:00,48.4,41.8,30.34,NE,45,0.7,4.9,78,0.00,,,0.00,WUHU216HW,2013-03-11 20:00:00,
2013-03-11 13:05:00,48.4,41.1,30.34,East,90,2.7,4.5,76,0.00,,,0.00,WUHU216HW,2013-03-11 20:05:00,
2013-03-11 13:10:00,48.6,41.0,30.34,ESE,113,2.0,2.7,75,0.00,,,0.00,WUHU216HW,2013-03-11 20:10:00,
2013-03-11 13:15:00,48.6,41.0,30.33,ENE,68,3.8,3.8,75,0.00,,,0.00,WUHU216HW,2013-03-11 20:15:00,
2013-03-11 13:20:00,48.6,40.0,30.33,SE,135,1.3,4.0,72,0.00,,,0.00,WUHU216HW,2013-03-11 20:20:00,
2013-03-11 13:25:00,49.0,40.6,30.33,ESE,113,1.1,4.0,73,0.00,,,0.00,WUHU216HW,2013-03-11 20:25:00,
2013-03-11 13:30:00,49.1,40.8,30.33,ESE,113,1.8,2.9,73,0.00,,,0.00,WUHU216HW,2013-03-11 20:30:00,
2013-03-11 13:35:00,49.3,41.3,30.33,NNE,23,0.9,2.9,74,0.00,,,0.00,WUHU216HW,2013-03-11 20:35:00,
2013-03-11 13:40:00,49.5,41.5,30.32,NE,45,1.6,2.9,74,0.00,,,0.00,WUHU216HW,2013-03-11 20:40:00,
2013-03-11 13:45:00,49.5,40.9,30.32,SSE,158,1.1,2.7,72,0.00,,,0.00,WUHU216HW,2013-03-11 20:45:00,
2013-03-11 13:50:00,49.7,41.1,30.32,ENE,68,0.4,2.7,72,0.00,,,0.00,WUHU216HW,2013-03-11 20:50:00,
2013-03-11 13:55:00,49.9,40.5,30.32,ESE,113,2.5,2.7,70,0.00,,,0.00,WUHU216HW,2013-03-11 20:55:00,
2013-03-11 14:00:00,49.9,41.2,30.32,NNE,23,0.9,2.5,72,0.00,,,0.00,WUHU216HW,2013-03-11 21:00:00,
2013-03-11 14:05:00,49.9,40.2,30.31,NE,45,1.3,2.5,69,0.00,,,0.00,WUHU216HW,2013-03-11 21:05:00,
2013-03-11 14:10:00,49.7,40.3,30.31,ENE,68,2.7,3.1,70,0.00,,,0.00,WUHU216HW,2013-03-11 21:10:00,
2013-03-11 14:15:00,49.7,41.1,30.31,SE,135,1.3,3.1,72,0.00,,,0.00,WUHU216HW,2013-03-11 21:15:00,
2013-03-11 14:20:00,49.9,40.5,30.31,East,90,1.3,3.4,70,0.00,,,0.00,WUHU216HW,2013-03-11 21:20:00,
2013-03-11 14:25:00,49.7,39.2,30.30,ENE,68,0.9,3.4,67,0.00,,,0.00,WUHU216HW,2013-03-11 21:25:00,
2013-03-11 14:30:00,49.7,40.3,30.30,East,90,1.1,3.4,70,0.00,,,0.00,WUHU216HW,2013-03-11 21:30:00,
2013-03-11 14:35:00,49.9,39.7,30.30,SE,135,1.6,3.6,68,0.00,,,0.00,WUHU216HW,2013-03-11 21:35:00,
2013-03-11 14:40:00,49.9,39.3,30.30,East,90,0.9,3.6,67,0.00,,,0.00,WUHU216HW,2013-03-11 21:40:00,
2013-03-11 14:45:00,50.0,40.3,30.30,East,90,1.8,2.2,69,0.00,,,0.00,WUHU216HW,2013-03-11 21:45:00,
2013-03-11 14:50:00,50.2,39.7,30.29,East,90,2.0,2.5,67,0.00,,,0.00,WUHU216HW,2013-03-11 21:50:00,
2013-03-11 14:55:00,50.0,38.7,30.29,ENE,68,1.8,2.5,65,0.00,,,0.00,WUHU216HW,2013-03-11 21:55:00,
2013-03-11 15:00:00,49.9,38.5,30.29,NE,45,2.5,2.5,65,0.00,,,0.00,WUHU216HW,2013-03-11 22:00:00,
2013-03-11 15:05:00,49.9,38.9,30.29,ENE,68,1.1,2.5,66,0.00,,,0.00,WUHU216HW,2013-03-11 22:05:00,
2013-03-11 15:10:00,49.7,39.2,30.29,SE,135,1.1,2.5,67,0.00,,,0.00,WUHU216HW,2013-03-11 22:10:00,
2013-03-11 15:15:00,50.0,39.5,30.28,ENE,68,0.2,1.3,67,0.00,,,0.00,WUHU216HW,2013-03-11 22:15:00,
2013-03-11 15:20:00,49.9,39.3,30.28,NNE,23,0.0,1.3,67,0.00,,,0.00,WUHU216HW,2013-03-11 22:20:00,
2013-03-11 15:25:00,49.7,38.8,30.28,ENE,68,2.2,2.2,66,0.00,,,0.00,WUHU216HW,2013-03-11 22:25:00,
2013-03-11 15:30:00,49.7,38.8,30.28,ENE,68,1.1,2.5,66,0.00,,,0.00,WUHU216HW,2013-03-11 22:30:00,
2013-03-11 15:35:00,49.7,38.8,30.28,ENE,68,0.4,3.4,66,0.00,,,0.00,WUHU216HW,2013-03-11 22:35:00,
2013-03-11 15:40:00,49.9,39.7,30.27,East,90,1.3,3.4,68,0.00,,,0.00,WUHU216HW,2013-03-11 22:40:00,
2013-03-11 15:45:00,49.9,39.3,30.28,NE,45,0.7,2.5,67,0.00,,,0.00,WUHU216HW,2013-03-11 22:45:00,
2013-03-11 15:50:00,49.9,39.3,30.27,ENE,68,1.1,2.5,67,0.00,,,0.00,WUHU216HW,2013-03-11 22:50:00,
2013-03-11 15:55:00,49.9,39.3,30.28,ENE,68,1.8,2.0,67,0.00,,,0.00,WUHU216HW,2013-03-11 22:55:00,
2013-03-11 16:00:00,49.7,39.2,30.28,NE,45,0.0,2.0,67,0.00,,,0.00,WUHU216HW,2013-03-11 23:00:00,
2013-03-11 16:05:00,49.7,39.2,30.28,WNW,293,0.0,1.8,67,0.00,,,0.00,WUHU216HW,2013-03-11 23:05:00,
2013-03-11 16:10:00,49.3,39.2,30.28,South,180,0.2,1.1,68,0.00,,,0.00,WUHU216HW,2013-03-11 23:10:00,
2013-03-11 16:15:00,49.3,39.6,30.28,SW,225,0.0,1.1,69,0.00,,,0.00,WUHU216HW,2013-03-11 23:15:00,
2013-03-11 16:20:00,49.3,39.6,30.28,South,180,0.4,1.1,69,0.00,,,0.00,WUHU216HW,2013-03-11 23:20:00,
2013-03-11 16:25:00,49.1,39.0,30.28,SSE,158,0.9,2.0,68,0.00,,,0.00,WUHU216HW,2013-03-11 23:25:00,
2013-03-11 16:30:00,49.0,39.3,30.27,NE,45,0.7,2.0,69,0.00,,,0.00,WUHU216HW,2013-03-11 23:30:00,
2013-03-11 16:35:00,49.0,38.8,30.27,North,0,0.7,2.2,68,0.00,,,0.00,WUHU216HW,2013-03-11 23:35:00,
2013-03-11 16:40:00,49.0,39.3,30.27,East,90,1.1,2.2,69,0.00,,,0.00,WUHU216HW,2013-03-11 23:40:00,
2013-03-11 16:45:00,48.8,39.4,30.26,ENE,68,0.2,1.8,70,0.00,,,0.00,WUHU216HW,2013-03-11 23:45:00,
2013-03-11 16:51:00,48.8,39.4,30.26,ENE,68,0.9,1.1,70,0.00,,,0.00,WUHU216HW,2013-03-11 23:51:00,
2013-03-11 16:56:00,48.8,39.4,30.26,NE,45,1.6,1.6,70,0.00,,,0.00,WUHU216HW,2013-03-11 23:56:00,
2013-03-11 17:01:00,48.8,39.4,30.26,NE,45,0.2,1.6,70,0.00,,,0.00,WUHU216HW,2013-03-12 00:01:00,
2013-03-11 17:06:00,48.8,39.4,30.25,SE,135,0.4,1.6,70,0.00,,,0.00,WUHU216HW,2013-03-12 00:06:00,
2013-03-11 17:11:00,48.6,39.6,30.25,NE,45,0.0,1.6,71,0.00,,,0.00,WUHU216HW,2013-03-12 00:11:00,
2013-03-11 17:16:00,48.6,39.2,30.25,SE,135,1.1,1.3,70,0.00,,,0.00,WUHU216HW,2013-03-12 00:16:00,
2013-03-11 17:21:00,48.6,39.2,30.24,ENE,68,0.4,1.1,70,0.00,,,0.00,WUHU216HW,2013-03-12 00:21:00,
2013-03-11 17:26:00,48.4,38.7,30.24,NNE,23,0.0,1.6,69,0.00,,,0.00,WUHU216HW,2013-03-12 00:26:00,
2013-03-11 17:31:00,48.2,38.2,30.24,WNW,293,0.7,1.6,68,0.00,,,0.00,WUHU216HW,2013-03-12 00:31:00,
2013-03-11 17:36:00,48.1,38.0,30.24,NNW,338,0.4,1.1,68,0.00,,,0.00,WUHU216HW,2013-03-12 00:36:00,
2013-03-11 17:41:00,48.1,38.0,30.24,North,0,0.0,1.1,68,0.00,,,0.00,WUHU216HW,2013-03-12 00:41:00,
2013-03-11 17:46:00,47.9,37.8,30.23,North,0,0.7,1.1,68,0.00,,,0.00,WUHU216HW,2013-03-12 00:46:00,
2013-03-11 17:51:00,47.9,38.2,30.23,North,0,1.3,1.3,69,0.00,,,0.00,WUHU216HW,2013-03-12 00:51:00,
2013-03-11 17:56:00,47.9,38.2,30.23,NNE,23,1.1,1.6,69,0.00,,,0.00,WUHU216HW,2013-03-12 00:56:00,
2013-03-11 18:01:00,47.9,38.2,30.23,NNW,338,0.2,1.8,69,0.00,,,0.00,WUHU216HW,2013-03-12 01:01:00,
2013-03-11 18:06:00,47.9,38.2,30.23,North,0,0.4,1.8,69,0.00,,,0.00,WUHU216HW,2013-03-12 01:06:00,
2013-03-11 18:11:00,47.7,38.0,30.22,NE,45,0.9,1.8,69,0.00,,,0.00,WUHU216HW,2013-03-12 01:11:00,
2013-03-11 18:16:00,47.5,38.3,30.22,NNE,23,1.1,1.8,70,0.00,,,0.00,WUHU216HW,2013-03-12 01:16:00,
2013-03-11 18:21:00,47.5,38.3,30.22,NNE,23,0.0,1.8,70,0.00,,,0.00,WUHU216HW,2013-03-12 01:21:00,
2013-03-11 18:26:00,47.5,38.3,30.22,NNE,23,1.1,1.6,70,0.00,,,0.00,WUHU216HW,2013-03-12 01:26:00,
2013-03-11 18:31:00,47.5,38.6,30.22,NW,315,0.7,1.6,71,0.00,,,0.00,WUHU216HW,2013-03-12 01:31:00,
2013-03-11 18:36:00,47.3,38.8,30.22,NE,45,1.1,1.3,72,0.00,,,0.00,WUHU216HW,2013-03-12 01:36:00,
2013-03-11 18:41:00,47.3,38.8,30.22,North,0,0.2,1.3,72,0.00,,,0.00,WUHU216HW,2013-03-12 01:41:00,
2013-03-11 18:46:00,47.3,38.8,30.21,NNE,23,1.6,1.6,72,0.00,,,0.00,WUHU216HW,2013-03-12 01:46:00,
2013-03-11 18:51:00,47.2,38.6,30.21,NNE,23,1.1,1.8,72,0.00,,,0.00,WUHU216HW,2013-03-12 01:51:00,
2013-03-11 18:56:00,47.2,38.6,30.20,NNE,23,1.1,1.8,72,0.00,,,0.00,WUHU216HW,2013-03-12 01:56:00,
2013-03-11 19:01:00,47.2,38.6,30.20,NE,45,1.1,1.6,72,0.00,,,0.00,WUHU216HW,2013-03-12 02:01:00,
2013-03-11 19:06:00,47.2,39.0,30.20,ENE,68,0.0,1.6,73,0.00,,,0.00,WUHU216HW,2013-03-12 02:06:00,
2013-03-11 19:11:00,47.2,39.0,30.20,NE,45,1.1,1.3,73,0.00,,,0.00,WUHU216HW,2013-03-12 02:11:00,
2013-03-11 19:16:00,47.2,38.6,30.19,NNE,23,1.1,3.8,72,0.00,,,0.00,WUHU216HW,2013-03-12 02:16:00,
2013-03-11 19:21:00,47.2,39.2,30.19,East,90,0.0,3.8,74,0.00,,,0.00,WUHU216HW,2013-03-12 02:21:00,
2013-03-11 19:25:00,47.0,39.2,30.19,NNE,23,0.7,1.1,74,0.00,,,0.00,WUHU216HW,2013-03-12 02:25:00,
2013-03-11 19:31:00,47.0,39.2,30.19,NE,45,1.8,2.2,74,0.00,,,0.00,WUHU216HW,2013-03-12 02:31:00,
2013-03-11 19:35:00,47.0,39.2,30.18,NE,45,2.0,3.1,74,0.00,,,0.00,WUHU216HW,2013-03-12 02:35:00,
2013-03-11 19:40:00,46.8,38.6,30.18,ENE,68,1.3,3.4,73,0.00,,,0.00,WUHU216HW,2013-03-12 02:40:00,
2013-03-11 19:46:00,47.0,39.2,30.17,ENE,68,1.6,3.4,74,0.00,,,0.00,WUHU216HW,2013-03-12 02:46:00,
2013-03-11 19:51:00,47.0,38.8,30.17,NE,45,1.8,2.5,73,0.00,,,0.00,WUHU216HW,2013-03-12 02:51:00,
2013-03-11 19:56:00,46.8,39.3,30.17,NE,45,2.5,3.6,75,0.00,,,0.00,WUHU216HW,2013-03-12 02:56:00,
2013-03-11 20:01:00,46.8,39.0,30.17,ENE,68,2.5,3.6,74,0.00,,,0.00,WUHU216HW,2013-03-12 03:01:00,
2013-03-11 20:06:00,46.8,38.6,30.17,ENE,68,2.5,5.1,73,0.00,,,0.00,WUHU216HW,2013-03-12 03:06:00,
2013-03-11 20:11:00,47.0,38.8,30.16,NNE,23,2.7,6.3,73,0.00,,,0.00,WUHU216HW,2013-03-12 03:11:00,
2013-03-11 20:16:00,47.0,38.8,30.16,NE,45,2.7,6.3,73,0.00,,,0.00,WUHU216HW,2013-03-12 03:16:00,
2013-03-11 20:21:00,47.0,38.8,30.16,NE,45,3.4,4.7,73,0.00,,,0.00,WUHU216HW,2013-03-12 03:21:00,
2013-03-11 20:26:00,47.2,39.0,30.16,ENE,68,3.4,4.9,73,0.00,,,0.00,WUHU216HW,2013-03-12 03:26:00,
2013-03-11 20:31:00,47.2,39.2,30.16,ENE,68,0.7,4.9,74,0.00,,,0.00,WUHU216HW,2013-03-12 03:31:00,
2013-03-11 20:36:00,47.0,39.2,30.16,ENE,68,1.6,3.4,74,0.00,,,0.00,WUHU216HW,2013-03-12 03:36:00,
2013-03-11 20:41:00,47.0,39.4,30.15,ENE,68,1.1,3.1,75,0.00,,,0.00,WUHU216HW,2013-03-12 03:41:00,
2013-03-11 20:46:00,47.0,39.4,30.15,ENE,68,0.4,2.0,75,0.00,,,0.00,WUHU216HW,2013-03-12 03:46:00,
2013-03-11 20:51:00,47.0,39.8,30.15,NE,45,2.0,2.0,76,0.00,,,0.00,WUHU216HW,2013-03-12 03:51:00,
2013-03-11 20:56:00,46.8,40.3,30.15,NNE,23,2.5,3.4,78,0.00,,,0.00,WUHU216HW,2013-03-12 03:56:00,
2013-03-11 21:00:00,46.8,40.0,30.15,NE,45,2.0,4.7,77,0.00,,,0.00,WUHU216HW,2013-03-12 04:00:00,
2013-03-11 21:05:00,46.8,40.0,30.15,NE,45,2.0,4.7,77,0.00,,,0.00,WUHU216HW,2013-03-12 04:05:00,
2013-03-11 21:10:00,46.6,40.1,30.15,ENE,68,5.6,5.6,78,0.00,,,0.00,WUHU216HW,2013-03-12 04:10:00,
2013-03-11 21:15:00,46.6,40.5,30.15,ENE,68,4.7,5.6,79,0.00,,,0.00,WUHU216HW,2013-03-12 04:15:00,
2013-03-11 21:20:00,46.6,40.9,30.15,ENE,68,6.3,6.3,80,0.00,,,0.00,WUHU216HW,2013-03-12 04:20:00,
2013-03-11 21:25:00,46.4,41.0,30.15,NE,45,5.1,6.3,81,0.00,,,0.00,WUHU216HW,2013-03-12 04:25:00,
2013-03-11 21:30:00,46.3,41.4,30.15,NE,45,4.0,6.3,83,0.00,,,0.00,WUHU216HW,2013-03-12 04:30:00,
2013-03-11 21:35:00,46.1,41.9,30.15,ENE,68,4.3,5.4,85,0.00,,,0.00,WUHU216HW,2013-03-12 04:35:00,
2013-03-11 21:40:00,45.9,41.9,30.14,ENE,68,4.0,5.4,86,0.00,,,0.00,WUHU216HW,2013-03-12 04:40:00,
2013-03-11 21:45:00,45.7,42.1,30.14,ENE,68,5.4,5.8,87,0.00,,,0.00,WUHU216HW,2013-03-12 04:45:00,
2013-03-11 21:50:00,45.7,42.4,30.14,NE,45,5.4,6.5,88,0.00,,,0.00,WUHU216HW,2013-03-12 04:50:00,
2013-03-11 21:55:00,45.7,42.4,30.13,ENE,68,4.3,7.6,88,0.00,,,0.00,WUHU216HW,2013-03-12 04:55:00,
2013-03-11 22:00:00,45.7,43.0,30.14,NE,45,4.3,7.6,90,0.00,,,0.00,WUHU216HW,2013-03-12 05:00:00,
2013-03-11 22:05:00,45.7,43.0,30.13,East,90,3.4,6.7,90,0.00,,,0.00,WUHU216HW,2013-03-12 05:05:00,
2013-03-11 22:10:00,45.9,43.2,30.13,East,90,3.4,7.2,90,0.00,,,0.00,WUHU216HW,2013-03-12 05:10:00,
2013-03-11 22:15:00,45.9,43.5,30.13,East,90,3.4,7.2,91,0.00,,,0.00,WUHU216HW,2013-03-12 05:15:00,
2013-03-11 22:20:00,46.1,43.4,30.13,ESE,113,5.4,5.4,90,0.00,,,0.00,WUHU216HW,2013-03-12 05:20:00,
2013-03-11 22:25:00,46.1,43.4,30.12,ESE,113,3.4,6.0,90,0.00,,,0.00,WUHU216HW,2013-03-12 05:25:00,
2013-03-11 22:30:00,46.1,43.7,30.12,East,90,3.8,6.0,91,0.00,,,0.00,WUHU216HW,2013-03-12 05:30:00,
2013-03-11 22:35:00,46.1,43.4,30.12,East,90,2.7,4.7,90,0.00,,,0.00,WUHU216HW,2013-03-12 05:35:00,
2013-03-11 22:40:00,46.1,43.7,30.12,ESE,113,4.0,5.8,91,0.00,,,0.00,WUHU216HW,2013-03-12 05:40:00,
2013-03-11 22:45:00,46.1,43.4,30.11,ESE,113,4.0,5.8,90,0.00,,,0.00,WUHU216HW,2013-03-12 05:45:00,
2013-03-11 22:50:00,46.1,43.7,30.11,East,90,4.7,6.3,91,0.00,,,0.00,WUHU216HW,2013-03-12 05:50:00,
2013-03-11 22:55:00,46.1,43.7,30.11,ESE,113,4.0,6.3,91,0.00,,,0.00,WUHU216HW,2013-03-12 05:55:00,
2013-03-11 23:00:00,45.9,43.5,30.11,East,90,5.4,7.6,91,0.00,,,0.00,WUHU216HW,2013-03-12 06:00:00,
2013-03-11 23:05:00,45.7,43.3,30.10,SE,135,5.4,7.6,91,0.00,,,0.00,WUHU216HW,2013-03-12 06:05:00,
2013-03-11 23:10:00,45.7,43.3,30.10,ESE,113,3.6,6.0,91,0.00,,,0.00,WUHU216HW,2013-03-12 06:10:00,
2013-03-11 23:15:00,45.7,43.3,30.10,ESE,113,5.4,7.6,91,0.00,,,0.00,WUHU216HW,2013-03-12 06:15:00,
2013-03-11 23:20:00,45.7,43.3,30.09,East,90,4.7,7.6,91,0.00,,,0.00,WUHU216HW,2013-03-12 06:20:00,
2013-03-11 23:25:00,45.7,43.3,30.09,ESE,113,6.5,7.4,91,0.00,,,0.00,WUHU216HW,2013-03-12 06:25:00,
2013-03-11 23:30:00,45.5,43.1,30.09,ESE,113,5.1,7.4,91,0.00,,,0.00,WUHU216HW,2013-03-12 06:30:00,
2013-03-11 23:35:00,45.5,43.1,30.09,ESE,113,5.6,7.2,91,0.00,,,0.00,WUHU216HW,2013-03-12 06:35:00,
2013-03-11 23:40:00,45.5,43.4,30.08,NE,45,7.6,7.6,92,0.00,,,0.00,WUHU216HW,2013-03-12 06:40:00,
2013-03-11 23:45:00,45.5,43.1,30.08,ESE,113,5.4,8.3,91,0.00,,,0.00,WUHU216HW,2013-03-12 06:45:00,
2013-03-11 23:50:00,45.5,43.1,30.08,East,90,5.6,8.3,91,0.00,,,0.00,WUHU216HW,2013-03-12 06:50:00,
2013-03-11 23:55:00,45.5,43.1,30.08,ESE,113,4.7,7.4,91,0.00,,,0.00,WUHU216HW,2013-03-12 06:55:00,